KC9VAF Weather Reports


Display with metric or nautical units.
time (UTC)temp
F
wind
direction
speed
MPH
gust
MPH
rain 1hr
in
rain 24hr
in
rain mn
in
humidity
%
barometer
mb
20260507210438 53 91 2.0 3.0 0.00 0.00 0.00 53 1011.3
20260507205935 52 104 1.0 1.0 0.00 0.00 0.00 54 1011.3
20260507205432 51 90 1.0 2.0 0.00 0.00 0.00 55 1011.4
20260507204928 51 55 6.0 9.0 0.00 0.00 0.00 54 1011.3
20260507204425 50 67 1.0 1.0 0.00 0.00 0.00 56 1011.5
20260507203922 50 78 1.0 2.0 0.00 0.00 0.00 56 1011.5
20260507203420 51 159 2.0 3.0 0.00 0.00 0.00 58 1011.5
20260507202916 50 126 6.0 8.0 0.00 0.00 0.00 58 1011.7
20260507202413 51 92 2.0 3.0 0.00 0.00 0.00 59 1011.9
20260507201908 50 76 3.0 5.0 0.00 0.00 0.00 57 1012.0
20260507201404 48 140 4.0 6.0 0.00 0.00 0.00 62 1012.0
20260507200901 49 114 2.0 2.0 0.00 0.00 0.00 61 1012.3
20260507200357 49 70 2.0 3.0 0.00 0.00 0.00 62 1012.6
20260507195853 49 94 2.0 2.0 0.00 0.00 0.00 66 1012.6
20260507195350 48 82 3.0 3.0 0.00 0.00 0.00 62 1012.8
20260507194848 49 67 3.0 3.0 0.00 0.00 0.00 59 1012.8
20260507194344 48 64 0.0 1.0 0.00 0.00 0.00 55 1012.7
20260507193840 48 70 2.0 2.0 0.00 0.00 0.00 55 1012.8
20260507193338 48 97 1.0 2.0 0.00 0.00 0.00 57 1012.7
20260507192834 48 65 2.0 2.0 0.00 0.00 0.00 58 1012.4
20260507192330 49 82 3.0 3.0 0.00 0.00 0.00 60 1012.2
20260507191827 49 113 3.0 3.0 0.00 0.00 0.00 59 1012.2
20260507191323 48 80 3.0 3.0 0.00 0.00 0.00 59 1012.0
20260507190820 49 63 2.0 3.0 0.00 0.00 0.00 58 1012.2
20260507190318 50 102 2.0 2.0 0.00 0.00 0.00 57 1012.4
20260507185817 50 111 3.0 5.0 0.00 0.00 0.00 61 1012.2
20260507185313 49 79 2.0 3.0 0.00 0.00 0.00 58 1012.6
20260507184811 48 55 3.0 3.0 0.00 0.00 0.00 56 1012.7
20260507184309 48 149 3.0 7.0 0.00 0.00 0.00 57 1012.7
20260507183805 48 85 3.0 6.0 0.00 0.00 0.00 55 1013.0
20260507183302 49 82 3.0 3.0 0.00 0.00 0.00 55 1012.7
20260507182759 48 106 3.0 5.0 0.00 0.00 0.00 56 1012.9
20260507182254 48 90 5.0 8.0 0.00 0.00 0.00 54 1013.0
20260507181751 48 80 2.0 3.0 0.00 0.00 0.00 55 1013.2
20260507181248 49 50 3.0 3.0 0.00 0.00 0.00 56 1013.1
20260507180744 49 77 1.0 2.0 0.00 0.00 0.00 54 1013.2
20260507180241 50 42 2.0 3.0 0.00 0.00 0.00 55 1013.1
20260507175737 49 97 5.0 5.0 0.00 0.00 0.00 55 1013.3
20260507175234 49 99 3.0 3.0 0.00 0.00 0.00 55 1013.3
20260507174731 49 58 3.0 3.0 0.00 0.00 0.00 56 1013.4
20260507174229 51 137 1.0 2.0 0.00 0.00 0.00 54 1013.2
20260507173727 53 74 3.0 6.0 0.00 0.00 0.00 54 1013.2
20260507173223 52 86 3.0 3.0 0.00 0.00 0.00 54 1013.2
20260507172720 52 123 2.0 3.0 0.00 0.00 0.00 55 1013.4
20260507172217 55 102 2.0 2.0 0.00 0.00 0.00 43 1013.3
20260507171716 54 93 1.0 1.0 0.00 0.00 0.00 44 1013.5
20260507171214 54 113 0.0 1.0 0.00 0.00 0.00 44 1013.5
20260507170711 54 188 2.0 5.0 0.00 0.00 0.00 45 1013.6
20260507170208 54 129 2.0 2.0 0.00 0.00 0.00 44 1013.7
20260507165704 54 42 1.0 2.0 0.00 0.00 0.00 45 1013.9
20260507165200 54 178 2.0 2.0 0.00 0.00 0.00 43 1013.8
20260507164656 54 189 5.0 5.0 0.00 0.00 0.00 42 1013.8
20260507164154 53 268 5.0 5.0 0.00 0.00 0.00 45 1013.9
20260507163650 53 24 3.0 5.0 0.00 0.00 0.00 46 1014.1
20260507163149 53 79 1.0 1.0 0.00 0.00 0.00 45 1014.1
20260507162644 52 169 3.0 3.0 0.00 0.00 0.00 43 1014.1
20260507162140 53 297 3.0 3.0 0.00 0.00 0.00 45 1014.2
20260507161637 51 90 0.0 0.0 0.00 0.00 0.00 47 1014.2
20260507161133 52 62 1.0 1.0 0.00 0.00 0.00 45 1014.3
20260507160630 52 142 2.0 3.0 0.00 0.00 0.00 46 1014.4
20260507160127 52 107 1.0 2.0 0.00 0.00 0.00 49 1014.7
20260507155622 52 65 1.0 1.0 0.00 0.00 0.00 46 1014.7
20260507155119 52 100 0.0 1.0 0.00 0.00 0.00 48 1014.6
20260507154615 51 210 1.0 2.0 0.00 0.00 0.00 46 1014.8
20260507154113 50 286 3.0 5.0 0.00 0.00 0.00 48 1014.8
20260507153609 50 227 3.0 5.0 0.00 0.00 0.00 47 1014.8
20260507153106 50 272 1.0 3.0 0.00 0.00 0.00 47 1015.1
20260507152602 50 119 3.0 5.0 0.00 0.00 0.00 47 1015.1
20260507152058 49 85 2.0 2.0 0.00 0.00 0.00 49 1015.2
20260507151554 49 139 1.0 3.0 0.00 0.00 0.00 49 1015.1
20260507151051 48 1 5.0 6.0 0.00 0.00 0.00 49 1015.2
20260507150549 48 92 1.0 1.0 0.00 0.00 0.00 50 1015.6
20260507150045 49 187 3.0 5.0 0.00 0.00 0.00 49 1015.4
20260507145540 46 127 0.0 1.0 0.00 0.00 0.00 53 1015.2
20260507145038 46 320 3.0 5.0 0.00 0.00 0.00 55 1015.6
20260507144534 47 338 4.0 5.0 0.00 0.00 0.00 52 1015.4
20260507144032 45 339 2.0 2.0 0.00 0.00 0.00 56 1015.6
20260507143529 45 52 0.0 1.0 0.00 0.00 0.00 55 1015.7
20260507143027 45 144 1.0 2.0 0.00 0.00 0.00 56 1015.9
20260507142522 44 318 1.0 2.0 0.00 0.00 0.00 56 1015.7
20260507142019 44 65 0.0 0.0 0.00 0.00 0.00 57 1015.8
20260507141515 43 106 1.0 2.0 0.00 0.00 0.00 57 1016.0
20260507141012 44 312 1.0 2.0 0.00 0.00 0.00 58 1016.2
20260507140509 44 79 0.0 1.0 0.00 0.00 0.00 61 1016.1
20260507140007 44 66 2.0 2.0 0.00 0.00 0.00 60 1016.1
20260507135503 45 38 2.0 2.0 0.00 0.00 0.00 59 1016.2
20260507135000 44 116 1.0 2.0 0.00 0.00 0.00 57 1016.3
20260507134456 43 76 3.0 3.0 0.00 0.00 0.00 58 1016.4
20260507133953 43 79 3.0 3.0 0.00 0.00 0.00 58 1016.4
20260507133448 43 290 3.0 3.0 0.00 0.00 0.00 59 1016.3
20260507132947 43 101 2.0 3.0 0.00 0.00 0.00 59 1016.3
20260507132443 42 122 1.0 2.0 0.00 0.00 0.00 59 1016.3
20260507131939 43 237 2.0 2.0 0.00 0.00 0.00 59 1016.4
20260507131437 43 287 4.0 5.0 0.00 0.00 0.00 60 1016.3
20260507130934 42 333 1.0 3.0 0.00 0.00 0.00 61 1016.4
20260507130431 42 10 1.0 1.0 0.00 0.00 0.00 62 1016.3
20260507125929 42 122 1.0 2.0 0.00 0.00 0.00 61 1016.1
20260507125427 42 114 1.0 1.0 0.00 0.00 0.00 62 1015.8
20260507124924 42 36 1.0 2.0 0.00 0.00 0.00 63 1016.0
20260507124420 42 64 1.0 1.0 0.00 0.00 0.00 62 1016.1
20260507123919 41 299 1.0 2.0 0.00 0.00 0.00 62 1015.9
20260507123415 41 83 1.0 1.0 0.00 0.00 0.00 64 1016.0
20260507122912 40 97 1.0 1.0 0.00 0.00 0.00 67 1016.4
20260507122407 39 47 3.0 5.0 0.00 0.00 0.00 68 1016.2
20260507121904 39 54 0.0 1.0 0.00 0.00 0.00 71 1016.0
20260507121359 38 147 1.0 2.0 0.00 0.00 0.00 71 1016.1
20260507120856 37 43 2.0 2.0 0.00 0.00 0.00 73 1015.9
20260507120352 37 85 0.0 0.0 0.00 0.00 0.00 76 1015.9
20260507115848 36 38 1.0 1.0 0.00 0.00 0.00 76 1015.8
20260507115344 35 83 0.0 0.0 0.00 0.00 0.00 77 1015.8
20260507114840 35 83 0.0 0.0 0.00 0.00 0.00 78 1015.8
20260507114338 34 148 1.0 1.0 0.00 0.00 0.00 80 1015.7
20260507113835 34 92 1.0 1.0 0.00 0.00 0.00 81 1015.6
20260507113332 33 88 0.0 1.0 0.00 0.00 0.00 82 1015.4
20260507112829 33 96 1.0 1.0 0.00 0.00 0.00 83 1015.4
20260507112326 33 84 0.0 0.0 0.00 0.00 0.00 84 1015.1
20260507111824 32 86 0.0 0.0 0.00 0.00 0.00 85 1015.3
20260507111320 32 88 0.0 0.0 0.00 0.00 0.00 86 1015.2
20260507110817 31 88 0.0 0.0 0.00 0.00 0.00 85 1015.2
20260507110313 31 88 0.0 0.0 0.00 0.00 0.00 85 1015.3
20260507105810 31 98 0.0 0.0 0.00 0.00 0.00 85 1015.1
20260507105307 31 92 0.0 0.0 0.00 0.00 0.00 85 1015.2
20260507104804 31 97 0.0 0.0 0.00 0.00 0.00 85 1015.3
20260507104300 31 89 0.0 0.0 0.00 0.00 0.00 85 1015.3
20260507103756 31 88 0.0 0.0 0.00 0.00 0.00 85 1015.3
20260507103252 31 88 0.0 0.0 0.00 0.00 0.00 84 1015.1
20260507102749 31 90 0.0 0.0 0.00 0.00 0.00 84 1015.6
20260507102246 31 88 0.0 0.0 0.00 0.00 0.00 84 1015.4
20260507101742 31 102 0.0 0.0 0.00 0.00 0.00 84 1015.6
20260507101237 31 86 1.0 1.0 0.00 0.00 0.00 85 1015.4
20260507100734 31 86 0.0 0.0 0.00 0.00 0.00 84 1015.4
20260507100233 31 67 0.0 0.0 0.00 0.00 0.00 84 1015.6
20260507095730 31 88 0.0 0.0 0.00 0.00 0.00 84 1015.3
20260507095226 31 84 0.0 0.0 0.00 0.00 0.00 84 1015.0
20260507094723 31 88 0.0 0.0 0.00 0.00 0.00 84 1015.3
20260507094221 31 95 0.0 0.0 0.00 0.00 0.00 84 1015.3
20260507093717 32 99 0.0 0.0 0.00 0.00 0.00 83 1015.1
20260507093216 32 92 0.0 0.0 0.00 0.00 0.00 83 1015.1
20260507092713 32 91 0.0 0.0 0.00 0.00 0.00 83 1015.2
20260507092209 32 93 0.0 0.0 0.00 0.00 0.00 82 1015.3
20260507091706 32 92 0.0 0.0 0.00 0.00 0.00 82 1015.1
20260507091202 32 92 0.0 0.0 0.00 0.00 0.00 83 1015.1
20260507090657 32 83 0.0 0.0 0.00 0.00 0.00 82 1015.2
20260507090155 32 92 0.0 0.0 0.00 0.00 0.00 82 1015.3
20260507085652 32 92 0.0 0.0 0.00 0.00 0.00 83 1015.3
20260507085149 32 94 0.0 0.0 0.00 0.00 0.00 82 1015.4
20260507084646 32 95 0.0 0.0 0.00 0.00 0.00 83 1015.2
20260507084142 32 95 0.0 0.0 0.00 0.00 0.00 84 1015.3
20260507083639 32 94 0.0 0.0 0.00 0.00 0.00 84 1015.4
20260507083136 32 92 0.0 0.0 0.00 0.00 0.00 84 1015.3
20260507082632 32 85 0.0 0.0 0.00 0.00 0.00 85 1015.1
20260507082128 32 86 0.0 0.0 0.00 0.00 0.00 85 1015.1
20260507081625 32 91 0.0 0.0 0.00 0.00 0.00 84 1015.1
20260507081121 32 93 0.0 0.0 0.00 0.00 0.00 84 1015.0
20260507080618 32 85 0.0 0.0 0.00 0.00 0.00 83 1015.2
20260507080114 33 95 0.0 0.0 0.00 0.00 0.00 82 1015.2
20260507075609 33 95 0.0 0.0 0.00 0.00 0.00 81 1015.2
20260507075106 33 84 0.0 0.0 0.00 0.00 0.00 79 1015.3
20260507074603 33 84 0.0 0.0 0.00 0.00 0.00 79 1015.1
20260507074101 34 103 0.0 0.0 0.00 0.00 0.00 79 1015.3
20260507073556 34 80 0.0 0.0 0.00 0.00 0.00 78 1015.1
20260507073053 34 79 0.0 0.0 0.00 0.00 0.00 77 1015.4
20260507072551 34 85 0.0 0.0 0.00 0.00 0.00 78 1015.3
20260507072048 33 86 0.0 0.0 0.00 0.00 0.00 79 1015.4
20260507071545 33 79 0.0 0.0 0.00 0.00 0.00 80 1015.3
20260507071041 33 85 0.0 0.0 0.00 0.00 0.00 80 1015.4
20260507070539 33 82 0.0 0.0 0.00 0.00 0.00 79 1015.4
20260507070036 34 79 0.0 0.0 0.00 0.00 0.00 78 1015.7
20260507065532 34 79 0.0 0.0 0.00 0.00 0.00 78 1015.8
20260507065029 34 80 0.0 0.0 0.00 0.00 0.00 78 1016.0
20260507064527 34 87 0.0 0.0 0.00 0.00 0.00 78 1015.9
20260507064026 35 86 0.0 0.0 0.00 0.00 0.00 77 1015.9
20260507063522 35 82 0.0 0.0 0.00 0.00 0.00 76 1015.9
20260507063020 35 85 0.0 0.0 0.00 0.00 0.00 76 1015.8
20260507062516 35 93 0.0 0.0 0.00 0.00 0.00 76 1016.1
20260507062014 35 92 0.0 0.0 0.00 0.00 0.00 76 1015.8
20260507061511 35 90 0.0 0.0 0.00 0.00 0.00 77 1016.1
20260507061009 35 90 0.0 0.0 0.00 0.00 0.00 77 1016.0
20260507060506 35 96 0.0 1.0 0.00 0.00 0.00 77 1015.9
20260507060003 35 95 0.0 0.0 0.00 0.00 0.00 76 1016.0
20260507055458 35 83 0.0 0.0 0.00 0.00 0.00 75 1016.0
20260507054955 35 84 0.0 0.0 0.00 0.00 0.00 74 1016.2
20260507054451 36 86 0.0 0.0 0.00 0.00 0.00 73 1016.0
20260507053948 35 84 0.0 0.0 0.00 0.00 0.00 73 1016.1
20260507053446 35 81 0.0 0.0 0.00 0.00 0.00 72 1016.2
20260507052944 36 81 0.0 0.0 0.00 0.00 0.00 71 1016.2
20260507052442 36 81 0.0 0.0 0.00 0.00 0.00 70 1016.2
20260507051938 37 81 0.0 0.0 0.00 0.00 0.00 68 1016.1
20260507051436 38 80 0.0 0.0 0.00 0.00 0.00 67 1016.1
20260507050932 38 79 0.0 0.0 0.00 0.00 0.00 66 1016.2
20260507050429 39 76 0.0 0.0 0.00 0.00 0.00 65 1015.9
20260507045926 38 74 0.0 0.0 0.00 0.00 0.00 66 1016.0
20260507045423 38 54 1.0 1.0 0.00 0.00 0.00 66 1016.1
20260507044920 38 77 0.0 0.0 0.00 0.00 0.00 66 1016.0
20260507044417 38 77 0.0 0.0 0.00 0.00 0.00 66 1016.2
20260507043913 39 73 0.0 0.0 0.00 0.00 0.00 64 1016.2
20260507043409 39 75 0.0 0.0 0.00 0.00 0.00 64 1016.1
20260507042905 39 86 0.0 0.0 0.00 0.00 0.00 64 1016.0
20260507042402 40 66 0.0 1.0 0.00 0.00 0.00 63 1016.1
20260507041858 40 76 0.0 0.0 0.00 0.00 0.00 62 1016.0
20260507041355 41 83 0.0 0.0 0.00 0.00 0.00 61 1016.3
20260507040852 41 72 1.0 1.0 0.00 0.00 0.00 59 1016.3
20260507040348 41 65 1.0 1.0 0.00 0.00 0.00 58 1016.4
20260507035844 42 78 0.0 1.0 0.00 0.00 0.00 58 1016.3
20260507035340 42 48 1.0 1.0 0.00 0.00 0.00 57 1016.3
20260507034837 42 74 0.0 0.0 0.00 0.00 0.00 57 1016.3
20260507034334 43 338 1.0 2.0 0.00 0.00 0.00 55 1016.5
20260507033832 43 333 2.0 2.0 0.00 0.00 0.00 54 1016.3
20260507033330 43 61 0.0 1.0 0.00 0.00 0.00 54 1016.1
20260507032827 43 88 1.0 1.0 0.00 0.00 0.00 54 1016.3
20260507032323 43 5 1.0 1.0 0.00 0.00 0.00 54 1016.4
20260507031819 44 335 2.0 3.0 0.00 0.00 0.00 53 1016.4
20260507031316 44 58 1.0 1.0 0.00 0.00 0.00 52 1016.1
20260507030812 44 270 3.0 5.0 0.00 0.00 0.00 52 1016.1
20260507030311 45 350 3.0 3.0 0.00 0.00 0.00 52 1016.2
20260507025807 45 314 5.0 6.0 0.00 0.00 0.00 51 1016.2
20260507025306 45 334 4.0 5.0 0.00 0.00 0.00 50 1016.0
20260507024802 45 334 2.0 3.0 0.00 0.00 0.00 51 1016.0
20260507024259 45 3 4.0 5.0 0.00 0.00 0.00 51 1016.1
20260507023755 46 52 2.0 2.0 0.00 0.00 0.00 52 1016.0
20260507023252 46 49 1.0 2.0 0.00 0.00 0.00 51 1015.9
20260507022749 46 263 4.0 6.0 0.00 0.00 0.00 49 1015.8
20260507022245 46 28 3.0 3.0 0.00 0.00 0.00 50 1015.8
20260507021742 46 248 3.0 3.0 0.00 0.00 0.00 51 1015.8
20260507021237 46 292 2.0 3.0 0.00 0.00 0.00 50 1015.7
20260507020736 46 280 4.0 5.0 0.00 0.00 0.00 50 1015.7
20260507020232 46 21 1.0 2.0 0.00 0.00 0.00 51 1015.6
20260507015729 46 348 2.0 3.0 0.00 0.00 0.00 51 1015.3
20260507015226 46 274 5.0 6.0 0.00 0.00 0.00 50 1015.4
20260507014723 46 65 2.0 2.0 0.00 0.00 0.00 50 1015.6
20260507014220 46 81 1.0 2.0 0.00 0.00 0.00 50 1015.1
20260507013716 47 242 2.0 2.0 0.00 0.00 0.00 50 1014.9
20260507013214 47 123 2.0 2.0 0.00 0.00 0.00 49 1015.1
20260507012711 48 204 3.0 3.0 0.00 0.00 0.00 49 1015.1
20260507012206 48 109 2.0 2.0 0.00 0.00 0.00 49 1015.1
20260507011704 48 327 2.0 2.0 0.00 0.00 0.00 49 1014.9
20260507011200 48 356 2.0 3.0 0.00 0.00 0.00 48 1014.9
20260507010700 48 277 3.0 5.0 0.00 0.00 0.00 48 1014.8
20260507010156 48 68 3.0 5.0 0.00 0.00 0.00 47 1014.8
20260507005654 48 291 3.0 3.0 0.00 0.00 0.00 49 1014.6
20260507005155 49 283 1.0 2.0 0.00 0.00 0.00 47 1014.6
20260507004652 49 32 2.0 2.0 0.00 0.00 0.00 47 1014.5
20260507004149 49 25 2.0 2.0 0.00 0.00 0.00 47 1014.3
20260507003646 50 202 1.0 1.0 0.00 0.00 0.00 47 1014.5
20260507003146 50 307 3.0 3.0 0.00 0.00 0.00 47 1014.5
20260507002643 50 159 3.0 3.0 0.00 0.00 0.00 46 1014.5
20260507002138 50 293 3.0 6.0 0.00 0.00 0.00 46 1014.1
20260507001635 50 321 4.0 7.0 0.00 0.00 0.00 45 1014.4
20260507001133 50 262 6.0 6.0 0.00 0.00 0.00 45 1014.3
20260507000629 50 286 5.0 7.0 0.00 0.00 0.00 44 1014.1
20260507000124 50 304 2.0 2.0 0.00 0.00 0.00 45 1014.1
20260506235622 50 309 3.0 5.0 0.00 0.00 0.00 43 1014.3
20260506235122 51 274 3.0 3.0 0.00 0.00 0.00 44 1014.2
20260506234620 51 97 4.0 5.0 0.00 0.00 0.00 43 1014.1
20260506234117 51 8 3.0 3.0 0.00 0.00 0.00 43 1013.9
20260506233614 51 248 2.0 3.0 0.00 0.00 0.00 44 1014.2
20260506233111 51 29 3.0 6.0 0.00 0.00 0.00 44 1014.1
20260506232607 51 298 3.0 5.0 0.00 0.00 0.00 44 1014.0
20260506232102 51 304 3.0 5.0 0.00 0.00 0.00 43 1014.0
20260506231600 51 316 3.0 6.0 0.00 0.00 0.00 42 1014.0
20260506231058 51 111 1.0 2.0 0.00 0.00 0.00 43 1014.2
20260506230554 51 283 7.0 8.0 0.00 0.00 0.00 42 1013.9
20260506230051 51 62 1.0 1.0 0.00 0.00 0.00 43 1014.1
20260506225548 51 155 2.0 2.0 0.00 0.00 0.00 43 1013.9
20260506225044 51 321 5.0 7.0 0.00 0.00 0.00 42 1014.0
20260506224541 52 287 3.0 3.0 0.00 0.00 0.00 43 1013.9
20260506224038 52 102 2.0 3.0 0.00 0.00 0.00 43 1013.9
20260506223534 52 310 4.0 5.0 0.00 0.00 0.00 42 1013.8
20260506223030 52 297 4.0 7.0 0.00 0.00 0.00 41 1013.7
20260506222527 52 141 2.0 2.0 0.00 0.00 0.00 43 1013.7
20260506222024 52 249 3.0 5.0 0.00 0.00 0.00 42 1013.8
20260506221521 52 305 2.0 3.0 0.00 0.00 0.00 42 1013.6
20260506221019 52 315 2.0 3.0 0.00 0.00 0.00 43 1013.6
20260506220514 52 29 4.0 5.0 0.00 0.00 0.00 42 1013.8
20260506220010 52 299 3.0 3.0 0.00 0.00 0.00 43 1013.3
20260506215508 53 139 1.0 2.0 0.00 0.00 0.00 43 1013.7
20260506215004 52 216 4.0 7.0 0.00 0.00 0.00 43 1013.4
20260506214501 52 83 1.0 1.0 0.00 0.00 0.00 43 1013.7
20260506213958 53 258 3.0 3.0 0.00 0.00 0.00 41 1013.7
20260506213456 53 293 4.0 6.0 0.00 0.00 0.00 42 1013.4
20260506212952 53 286 3.0 6.0 0.00 0.00 0.00 43 1013.5
20260506212448 53 119 2.0 2.0 0.00 0.00 0.00 42 1013.5
20260506211943 53 357 1.0 1.0 0.00 0.00 0.00 42 1013.5
20260506211439 53 286 5.0 6.0 0.00 0.00 0.00 40 1013.6
20260506210937 53 2 3.0 3.0 0.00 0.00 0.00 40 1013.5